MSR702 OJAI-HECA

Flight info

Callsign MSR702
Flight time 1h 8m
Altitude 30000
Route LOSIL M319 ULINA M690 NOVPA N697 MENLI L677 CVO
Aircraft A320/M-SDE3FGHIRWY/LB1

Departure

Time 2026-05-03 21:43
Airport Queen Alia International Airport (OJAI)

Arrival

Time 2026-05-03 22:51
Airport Cairo International Airport (HECA)
Time Latitude Longitude Altitude Speed Heading
2026-05-03 21:23 31.72030 35.98655 2418 ft 0 kts 349°
2026-05-03 21:28 31.72016 35.98658 2418 ft 4 kts 345°
2026-05-03 21:28 31.71991 35.98669 2417 ft 4 kts 329°
2026-05-03 21:28 31.71972 35.98688 2418 ft 4 kts 290°
2026-05-03 21:29 31.71969 35.98705 2416 ft 1 kts 261°
2026-05-03 21:29 31.71970 35.98708 2416 ft 0 kts 261°
2026-05-03 21:32 31.71970 35.98707 2416 ft 1 kts 261°
2026-05-03 21:32 31.71966 35.98682 2416 ft 5 kts 260°
2026-05-03 21:33 31.71959 35.98636 2417 ft 7 kts 260°
2026-05-03 21:33 31.71950 35.98571 2418 ft 9 kts 260°
2026-05-03 21:33 31.71924 35.98561 2418 ft 5 kts 162°
2026-05-03 21:33 31.71885 35.98575 2418 ft 7 kts 162°
2026-05-03 21:34 31.71836 35.98598 2417 ft 8 kts 154°
2026-05-03 21:34 31.71802 35.98650 2418 ft 9 kts 85°
2026-05-03 21:34 31.71813 35.98732 2418 ft 11 kts 80°
2026-05-03 21:34 31.71827 35.98826 2418 ft 8 kts 80°
2026-05-03 21:35 31.71837 35.98896 2418 ft 10 kts 80°
2026-05-03 21:35 31.71849 35.98983 2418 ft 12 kts 80°
2026-05-03 21:35 31.71865 35.99083 2418 ft 13 kts 79°
2026-05-03 21:35 31.71883 35.99195 2418 ft 15 kts 80°
2026-05-03 21:36 31.71901 35.99319 2418 ft 16 kts 78°
2026-05-03 21:36 31.71920 35.99452 2418 ft 16 kts 81°
2026-05-03 21:36 31.71939 35.99579 2418 ft 14 kts 79°
2026-05-03 21:36 31.72010 35.99635 2418 ft 15 kts 353°
2026-05-03 21:37 31.72117 35.99615 2418 ft 17 kts 350°
2026-05-03 21:37 31.72238 35.99591 2418 ft 19 kts 350°
2026-05-03 21:37 31.72373 35.99564 2418 ft 21 kts 350°
2026-05-03 21:37 31.72478 35.99542 2418 ft 11 kts 350°
2026-05-03 21:38 31.72562 35.99525 2418 ft 13 kts 350°
2026-05-03 21:38 31.72661 35.99506 2418 ft 15 kts 351°
2026-05-03 21:38 31.72756 35.99504 2418 ft 12 kts 39°
2026-05-03 21:38 31.72778 35.99601 2418 ft 13 kts 80°
2026-05-03 21:39 31.72795 35.99714 2417 ft 15 kts 81°
2026-05-03 21:39 31.72813 35.99838 2417 ft 16 kts 79°
2026-05-03 21:39 31.72833 35.99973 2418 ft 18 kts 81°
2026-05-03 21:39 31.72854 36.00120 2416 ft 19 kts 80°
2026-05-03 21:40 31.72875 36.00255 2418 ft 9 kts 80°
2026-05-03 21:40 31.72886 36.00334 2418 ft 11 kts 80°
2026-05-03 21:40 31.72899 36.00428 2417 ft 13 kts 80°
2026-05-03 21:40 31.72915 36.00535 2417 ft 14 kts 80°
2026-05-03 21:41 31.72932 36.00655 2418 ft 16 kts 81°
2026-05-03 21:41 31.72969 36.00776 2418 ft 16 kts 37°
2026-05-03 21:41 31.73087 36.00775 2417 ft 18 kts 352°
2026-05-03 21:41 31.73157 36.00762 2417 ft 10 kts 350°
2026-05-03 21:42 31.73215 36.00720 2415 ft 11 kts 291°
2026-05-03 21:42 31.73206 36.00623 2416 ft 13 kts 260°
2026-05-03 21:42 31.73168 36.00361 2416 ft 64 kts 260°
2026-05-03 21:42 31.73058 35.99609 2418 ft 120 kts 260°
2026-05-03 21:43 31.72899 35.98494 2502 ft 154 kts 261°
2026-05-03 21:43 31.72707 35.97209 2983 ft 159 kts 259°
2026-05-03 21:43 31.72516 35.95947 3745 ft 156 kts 261°
2026-05-03 21:43 31.72345 35.94685 4287 ft 162 kts 262°
2026-05-03 21:44 31.72146 35.93283 4563 ft 186 kts 262°
2026-05-03 21:44 31.71922 35.91713 4924 ft 210 kts 261°
2026-05-03 21:44 31.71521 35.89970 5336 ft 236 kts 242°
2026-05-03 21:44 31.70220 35.88670 6064 ft 257 kts 206°
2026-05-03 21:45 31.68437 35.88249 6986 ft 266 kts 191°
2026-05-03 21:45 31.66587 35.88183 7975 ft 266 kts 188°
2026-05-03 21:45 31.64736 35.88173 8926 ft 265 kts 188°
2026-05-03 21:45 31.62920 35.88111 9851 ft 264 kts 191°
2026-05-03 21:46 31.61083 35.87975 10630 ft 266 kts 193°
2026-05-03 21:46 31.59227 35.87771 11359 ft 269 kts 194°
2026-05-03 21:46 31.57358 35.87519 12155 ft 271 kts 195°
2026-05-03 21:46 31.55477 35.87239 12935 ft 274 kts 196°
2026-05-03 21:47 31.53577 35.86943 13683 ft 277 kts 196°
2026-05-03 21:47 31.51653 35.86639 14354 ft 280 kts 197°
2026-05-03 21:47 31.49715 35.86331 15037 ft 282 kts 197°
2026-05-03 21:47 31.47760 35.86022 15736 ft 284 kts 197°
2026-05-03 21:48 31.45743 35.85744 16057 ft 303 kts 195°
2026-05-03 21:48 31.43565 35.85496 16181 ft 326 kts 194°
2026-05-03 21:48 31.41250 35.85271 16428 ft 340 kts 193°
2026-05-03 21:48 31.38869 35.85061 16989 ft 345 kts 193°
2026-05-03 21:49 31.36469 35.84854 17654 ft 346 kts 193°
2026-05-03 21:49 31.34057 35.84640 18255 ft 350 kts 193°
2026-05-03 21:49 31.31618 35.84412 18842 ft 353 kts 194°
2026-05-03 21:49 31.29162 35.84177 19411 ft 356 kts 194°
2026-05-03 21:50 31.26682 35.83935 19981 ft 359 kts 194°
2026-05-03 21:50 31.24181 35.83687 20554 ft 362 kts 194°
2026-05-03 21:50 31.21657 35.83435 21108 ft 366 kts 195°
2026-05-03 21:50 31.19111 35.83181 21641 ft 369 kts 195°
2026-05-03 21:51 31.16537 35.82924 22095 ft 373 kts 195°
2026-05-03 21:51 31.13939 35.82664 22565 ft 377 kts 195°
2026-05-03 21:51 31.11314 35.82404 23074 ft 380 kts 195°
2026-05-03 21:51 31.08670 35.82142 23559 ft 383 kts 195°
2026-05-03 21:52 31.06003 35.81877 23974 ft 386 kts 195°
2026-05-03 21:52 31.03320 35.81613 24393 ft 388 kts 195°
2026-05-03 21:52 31.00630 35.81351 24833 ft 389 kts 195°
2026-05-03 21:52 30.97929 35.81089 25250 ft 390 kts 195°
2026-05-03 21:53 30.95215 35.80826 25619 ft 392 kts 195°
2026-05-03 21:53 30.92490 35.80560 26023 ft 394 kts 195°
2026-05-03 21:53 30.89754 35.80289 26335 ft 396 kts 196°
2026-05-03 21:53 30.87007 35.80016 26713 ft 397 kts 195°
2026-05-03 21:54 30.84255 35.79743 27133 ft 397 kts 196°
2026-05-03 21:54 30.81579 35.79175 27540 ft 385 kts 205°
2026-05-03 21:54 30.79112 35.78084 27930 ft 376 kts 214°
2026-05-03 21:54 30.76799 35.76679 28317 ft 375 kts 216°
2026-05-03 21:55 30.74483 35.75265 28694 ft 377 kts 215°
2026-05-03 21:55 30.72157 35.73847 29086 ft 378 kts 215°
2026-05-03 21:55 30.69855 35.72445 29448 ft 379 kts 215°
2026-05-03 21:55 30.67518 35.71025 29887 ft 379 kts 215°
2026-05-03 21:56 30.65188 35.69611 30040 ft 376 kts 215°
2026-05-03 21:56 30.62885 35.68218 30065 ft 371 kts 215°
2026-05-03 21:56 30.58331 35.65465 30056 ft 368 kts 215°
2026-05-03 21:57 30.53788 35.62714 30068 ft 368 kts 215°
2026-05-03 21:57 30.49250 35.59964 30065 ft 368 kts 215°
2026-05-03 21:58 30.44712 35.57219 30054 ft 368 kts 215°
2026-05-03 21:58 30.40168 35.54476 30065 ft 368 kts 215°
2026-05-03 21:59 30.35626 35.51739 30024 ft 369 kts 215°
2026-05-03 21:59 30.31068 35.48992 30063 ft 370 kts 215°
2026-05-03 22:00 30.26514 35.46252 30057 ft 369 kts 215°
2026-05-03 22:00 30.21938 35.43536 30071 ft 373 kts 212°
2026-05-03 22:01 30.16958 35.41590 30025 ft 379 kts 206°
2026-05-03 22:01 30.11931 35.39737 30029 ft 379 kts 206°
2026-05-03 22:02 30.06901 35.37877 30038 ft 380 kts 206°
2026-05-03 22:02 30.01864 35.36013 30036 ft 380 kts 206°
2026-05-03 22:03 29.96824 35.34144 30045 ft 381 kts 207°
2026-05-03 22:03 29.91757 35.32279 30044 ft 384 kts 206°
2026-05-03 22:04 29.86689 35.30418 30043 ft 385 kts 206°
2026-05-03 22:04 29.81583 35.28541 30043 ft 385 kts 206°
2026-05-03 22:05 29.76487 35.26659 30041 ft 385 kts 206°
2026-05-03 22:05 29.72216 35.25088 30016 ft 385 kts 206°
2026-05-03 22:06 29.66289 35.22913 30076 ft 384 kts 206°
2026-05-03 22:06 29.62020 35.21353 30074 ft 384 kts 207°
2026-05-03 22:07 29.59597 35.20192 30053 ft 372 kts 216°
2026-05-03 22:07 29.57476 35.18553 30053 ft 364 kts 225°
2026-05-03 22:07 29.54096 35.14312 30022 ft 361 kts 233°
2026-05-03 22:08 29.50840 35.09895 30050 ft 363 kts 233°
2026-05-03 22:08 29.47568 35.05479 30046 ft 363 kts 232°
2026-05-03 22:09 29.44298 35.01074 30045 ft 363 kts 233°
2026-05-03 22:10 29.38788 34.95084 30058 ft 371 kts 221°
2026-05-03 22:10 29.34564 34.91755 30012 ft 371 kts 220°
2026-05-03 22:11 29.30278 34.88374 30009 ft 372 kts 221°
2026-05-03 22:11 29.26044 34.85032 30013 ft 372 kts 220°
2026-05-03 22:12 29.21744 34.81654 30015 ft 372 kts 220°
2026-05-03 22:12 29.17502 34.78316 29981 ft 373 kts 221°
2026-05-03 22:13 29.13218 34.74953 29993 ft 374 kts 221°
2026-05-03 22:13 29.08926 34.71593 30007 ft 374 kts 221°
2026-05-03 22:13 29.07001 34.69655 30004 ft 366 kts 234°
2026-05-03 22:14 29.05662 34.67222 30006 ft 361 kts 247°
2026-05-03 22:14 29.04977 34.64467 29996 ft 362 kts 261°
2026-05-03 22:14 29.04996 34.61537 30007 ft 369 kts 274°
2026-05-03 22:15 29.06516 34.55879 30007 ft 377 kts 282°
2026-05-03 22:15 29.08196 34.50196 30017 ft 378 kts 282°
2026-05-03 22:16 29.09872 34.44490 30030 ft 379 kts 281°
2026-05-03 22:16 29.11543 34.38758 30042 ft 381 kts 281°
2026-05-03 22:17 29.13215 34.33009 30038 ft 381 kts 281°
2026-05-03 22:17 29.14896 34.27255 30048 ft 382 kts 281°
2026-05-03 22:18 29.16579 34.21494 30083 ft 382 kts 281°
2026-05-03 22:18 29.18250 34.15726 30074 ft 382 kts 281°
2026-05-03 22:19 29.19924 34.09920 30083 ft 382 kts 281°
2026-05-03 22:19 29.21584 34.04197 30083 ft 381 kts 281°
2026-05-03 22:20 29.23252 33.98438 30080 ft 381 kts 281°
2026-05-03 22:20 29.24914 33.92682 30106 ft 381 kts 281°
2026-05-03 22:21 29.26580 33.86890 30098 ft 380 kts 281°
2026-05-03 22:21 29.28229 33.81140 30090 ft 380 kts 281°
2026-05-03 22:22 29.29881 33.75385 30084 ft 380 kts 281°
2026-05-03 22:22 29.31519 33.69669 30082 ft 380 kts 281°
2026-05-03 22:23 29.33163 33.63919 30107 ft 379 kts 281°
2026-05-03 22:23 29.34800 33.58180 30102 ft 378 kts 281°
2026-05-03 22:24 29.36431 33.52450 30095 ft 378 kts 281°
2026-05-03 22:24 29.38057 33.46722 30088 ft 378 kts 281°
2026-05-03 22:25 29.39682 33.40999 30085 ft 378 kts 281°
2026-05-03 22:25 29.41307 33.35276 30080 ft 377 kts 281°
2026-05-03 22:26 29.42927 33.29550 30079 ft 377 kts 281°
2026-05-03 22:26 29.44538 33.23824 30085 ft 377 kts 281°
2026-05-03 22:27 29.46162 33.18097 30075 ft 377 kts 281°
2026-05-03 22:27 29.47781 33.12368 30099 ft 377 kts 281°
2026-05-03 22:28 29.49380 33.06650 29743 ft 376 kts 281°
2026-05-03 22:28 29.50178 33.03797 29469 ft 376 kts 281°
2026-05-03 22:28 29.50977 33.00938 29198 ft 376 kts 281°
2026-05-03 22:28 29.51773 32.98091 28926 ft 374 kts 281°
2026-05-03 22:29 29.52566 32.95254 28660 ft 373 kts 281°
2026-05-03 22:29 29.53356 32.92425 28389 ft 371 kts 281°
2026-05-03 22:29 29.54141 32.89611 28124 ft 369 kts 281°
2026-05-03 22:29 29.54921 32.86809 27871 ft 368 kts 281°
2026-05-03 22:30 29.55699 32.84012 27610 ft 367 kts 281°
2026-05-03 22:30 29.56475 32.81225 27353 ft 365 kts 282°
2026-05-03 22:30 29.57249 32.78453 27110 ft 364 kts 282°
2026-05-03 22:30 29.58016 32.75693 26864 ft 362 kts 282°
2026-05-03 22:31 29.58777 32.72943 26610 ft 360 kts 282°
2026-05-03 22:31 29.59534 32.70205 26366 ft 359 kts 282°
2026-05-03 22:31 29.60277 32.67474 26123 ft 357 kts 281°
2026-05-03 22:31 29.60947 32.64739 25882 ft 354 kts 279°
2026-05-03 22:32 29.61564 32.62007 25642 ft 353 kts 279°
2026-05-03 22:32 29.62155 32.59292 25443 ft 349 kts 279°
2026-05-03 22:32 29.62740 32.56596 25212 ft 347 kts 279°
2026-05-03 22:32 29.63325 32.53917 24972 ft 345 kts 279°
2026-05-03 22:33 29.63920 32.51247 24738 ft 344 kts 279°
2026-05-03 22:33 29.64521 32.48592 24513 ft 343 kts 280°
2026-05-03 22:33 29.65122 32.45944 24280 ft 342 kts 280°
2026-05-03 22:33 29.65720 32.43309 24058 ft 340 kts 280°
2026-05-03 22:34 29.66315 32.40681 23827 ft 339 kts 280°
2026-05-03 22:34 29.66905 32.38063 23601 ft 338 kts 280°
2026-05-03 22:34 29.67482 32.35485 23336 ft 337 kts 280°
2026-05-03 22:34 29.68074 32.32848 23090 ft 335 kts 280°
2026-05-03 22:35 29.68656 32.30263 22822 ft 334 kts 280°
2026-05-03 22:35 29.69236 32.27683 22564 ft 333 kts 280°
2026-05-03 22:35 29.69806 32.25146 22298 ft 332 kts 280°
2026-05-03 22:35 29.70380 32.22581 22052 ft 331 kts 280°
2026-05-03 22:36 29.70953 32.20021 21794 ft 330 kts 280°
2026-05-03 22:36 29.71523 32.17479 21499 ft 326 kts 280°
2026-05-03 22:36 29.72087 32.14971 21071 ft 322 kts 280°
2026-05-03 22:36 29.72644 32.12492 20621 ft 318 kts 280°
2026-05-03 22:37 29.73192 32.10037 20168 ft 315 kts 280°
2026-05-03 22:37 29.73731 32.07603 19711 ft 312 kts 279°
2026-05-03 22:37 29.74265 32.05191 19243 ft 310 kts 280°
2026-05-03 22:37 29.74798 32.02794 18776 ft 308 kts 280°
2026-05-03 22:38 29.75327 32.00414 18283 ft 307 kts 280°
2026-05-03 22:38 29.75854 31.98043 17762 ft 304 kts 280°
2026-05-03 22:38 29.76375 31.95691 17282 ft 302 kts 280°
2026-05-03 22:38 29.76888 31.93363 16801 ft 299 kts 280°
2026-05-03 22:39 29.77399 31.91052 16318 ft 297 kts 281°
2026-05-03 22:39 29.77913 31.88757 15834 ft 296 kts 282°
2026-05-03 22:39 29.78667 31.86544 15357 ft 299 kts 292°
2026-05-03 22:39 29.79810 31.84518 14865 ft 304 kts 300°
2026-05-03 22:40 29.81070 31.82571 14369 ft 303 kts 301°
2026-05-03 22:40 29.82329 31.80621 13870 ft 303 kts 301°
2026-05-03 22:40 29.83587 31.78671 13335 ft 303 kts 301°
2026-05-03 22:40 29.84838 31.76726 12830 ft 301 kts 301°
2026-05-03 22:41 29.86078 31.74791 12340 ft 300 kts 301°
2026-05-03 22:41 29.87310 31.72862 11849 ft 298 kts 301°
2026-05-03 22:41 29.88540 31.70940 11364 ft 297 kts 301°
2026-05-03 22:41 29.89765 31.69025 10880 ft 297 kts 301°
2026-05-03 22:42 29.90918 31.67080 10572 ft 288 kts 294°
2026-05-03 22:42 29.91668 31.65019 10453 ft 272 kts 283°
2026-05-03 22:42 29.92049 31.62939 10305 ft 261 kts 278°
2026-05-03 22:42 29.92380 31.60910 10097 ft 255 kts 278°
2026-05-03 22:43 29.92707 31.58908 9943 ft 254 kts 278°
2026-05-03 22:43 29.93033 31.56910 9812 ft 254 kts 278°
2026-05-03 22:43 29.93363 31.54884 9279 ft 261 kts 279°
2026-05-03 22:43 29.93649 31.52839 9011 ft 255 kts 273°
2026-05-03 22:44 29.93719 31.50810 8546 ft 255 kts 270°
2026-05-03 22:44 29.93749 31.48719 7458 ft 268 kts 270°
2026-05-03 22:44 29.93776 31.46587 6964 ft 260 kts 270°
2026-05-03 22:44 29.93805 31.44511 6298 ft 259 kts 270°
2026-05-03 22:45 29.93832 31.42433 5576 ft 260 kts 270°
2026-05-03 22:45 29.93857 31.40345 4812 ft 261 kts 270°
2026-05-03 22:45 29.93868 31.38245 4043 ft 263 kts 270°
2026-05-03 22:45 29.93838 31.36132 3297 ft 265 kts 270°
2026-05-03 22:46 29.93773 31.34097 3222 ft 242 kts 270°
2026-05-03 22:46 29.93706 31.32256 3216 ft 218 kts 270°
2026-05-03 22:46 29.93777 31.30608 3207 ft 199 kts 287°
2026-05-03 22:46 29.94396 31.29210 3207 ft 197 kts 311°
2026-05-03 22:47 29.95007 31.28435 3210 ft 198 kts 313°
2026-05-03 22:47 29.95937 31.27268 3218 ft 195 kts 313°
2026-05-03 22:47 29.96912 31.26236 3019 ft 190 kts 330°
2026-05-03 22:47 29.98156 31.25821 2869 ft 187 kts 357°
2026-05-03 22:48 29.99416 31.26143 2824 ft 189 kts 24°
2026-05-03 22:48 30.00426 31.27130 2785 ft 194 kts 44°
2026-05-03 22:48 30.01597 31.28694 2736 ft 194 kts 45°
2026-05-03 22:48 30.02478 31.29868 2588 ft 193 kts 44°
2026-05-03 22:49 30.03072 31.30657 2440 ft 192 kts 45°
2026-05-03 22:49 30.03946 31.31819 2197 ft 191 kts 44°
2026-05-03 22:49 30.04817 31.32975 1946 ft 191 kts 45°
2026-05-03 22:49 30.05688 31.34131 1690 ft 191 kts 46°
2026-05-03 22:50 30.06556 31.35284 1428 ft 190 kts 45°
2026-05-03 22:50 30.07420 31.36433 1178 ft 189 kts 46°
2026-05-03 22:50 30.08279 31.37575 959 ft 185 kts 46°
2026-05-03 22:50 30.09088 31.38654 712 ft 166 kts 46°
2026-05-03 22:51 30.09797 31.39598 487 ft 149 kts 45°
2026-05-03 22:51 30.10453 31.40461 389 ft 124 kts 47°
2026-05-03 22:51 30.10817 31.40947 388 ft 37 kts 50°
2026-05-03 22:51 30.10973 31.41166 389 ft 33 kts 51°
2026-05-03 22:52 30.11128 31.41375 388 ft 35 kts 47°
2026-05-03 22:52 30.11235 31.41502 388 ft 20 kts 41°
2026-05-03 22:52 30.11352 31.41574 388 ft 19 kts 22°
2026-05-03 22:52 30.11466 31.41619 388 ft 17 kts 18°
2026-05-03 22:53 30.11567 31.41580 389 ft 14 kts 282°
2026-05-03 22:53 30.11522 31.41503 389 ft 13 kts 233°
2026-05-03 22:53 30.11461 31.41418 389 ft 16 kts 228°
2026-05-03 22:53 30.11402 31.41341 389 ft 13 kts 229°
2026-05-03 22:54 30.11333 31.41252 389 ft 16 kts 230°
2026-05-03 22:54 30.11252 31.41144 389 ft 19 kts 229°
2026-05-03 22:54 30.11189 31.41057 389 ft 15 kts 232°
2026-05-03 22:54 30.11118 31.40966 389 ft 15 kts 230°
2026-05-03 22:55 30.11047 31.40869 389 ft 11 kts 228°
2026-05-03 22:55 30.10989 31.40791 387 ft 15 kts 226°
2026-05-03 22:55 30.10914 31.40692 388 ft 18 kts 231°
2026-05-03 22:55 30.10827 31.40577 388 ft 21 kts 230°
2026-05-03 22:56 30.10752 31.40472 387 ft 15 kts 230°
2026-05-03 22:56 30.10676 31.40369 386 ft 14 kts 243°
2026-05-03 22:56 30.10686 31.40298 386 ft 10 kts 303°
2026-05-03 22:56 30.10682 31.40230 387 ft 12 kts 216°
2026-05-03 22:57 30.10618 31.40139 384 ft 17 kts 227°
2026-05-03 22:57 30.10547 31.40045 379 ft 12 kts 229°
2026-05-03 22:57 30.10483 31.39959 379 ft 15 kts 231°
2026-05-03 22:57 30.10506 31.39856 376 ft 13 kts 323°
2026-05-03 22:58 30.10601 31.39828 371 ft 16 kts 347°
2026-05-03 22:58 30.10680 31.39804 370 ft 10 kts 345°
2026-05-03 22:58 30.10727 31.39789 370 ft 5 kts 342°
2026-05-03 22:58 30.10754 31.39756 370 ft 7 kts 282°
2026-05-03 22:59 30.10745 31.39718 370 ft 2 kts 252°
2026-05-03 22:59 30.10740 31.39697 370 ft 1 kts 256°
2026-05-03 22:59 30.10738 31.39691 370 ft 0 kts 256°